Regional Weather Roundup
Issued by NWS Charleston, SC

Current Version | Previous Version | Graphics & Text | Print | Product List | Glossary On
Versions: 1 2 3 4 5 6 7 8 9 10 11 12 13 14 15 16 17 18 19 20 21 22 23 24 25 26 27 28 29 30 31 32 33 34 35 36 37 38 39 40 41 42 43 44 45 46 47 48 49 50
000
ASUS42 KCHS 031027
RWRCHS

REGIONAL WEATHER ROUNDUP
NATIONAL WEATHER SERVICE CHARLESTON SC
500 AM EST TUE MAR 03 2015

NOTE: "FAIR" INDICATES FEW OR NO CLOUDS BELOW 12,000 FEET WITH NO
SIGNIFICANT WEATHER AND/OR OBSTRUCTIONS TO VISIBILITY.

NOT ALL STATIONS ARE QUALITY CONTROLLED BY THE NATIONAL
WEATHER SERVICE. USE DATA WITH CAUTION...ESPECIALLY
DEWPOINT OBSERVATIONS.

SCZ027-030-031-034>040-042>050-031100-
...SOUTHEAST SOUTH CAROLINA...

CITY           SKY/WX    TMP DP  RH WIND       PRES   REMARKS
N CHARLESTON   CLOUDY    57  52  83 E12       30.24S
WATERFRONT PRK   N/A     54 N/A N/A NE15        N/A
MOUNT PLEASANT CLOUDY    54  48  82 NE7       30.26R
PINOPOLIS      NOT AVBL
MONCKS CORNER  CLOUDY    55  48  76 E6        30.26R
SUMMERVILLE    CLOUDY    55  54  94 NE6       30.26R
BEAUFORT MCAS  CLOUDY    55  53  93 NE3       30.23R
BEAUFORT ARPT  CLOUDY    55  55 100 CALM      30.23R
HILTON HEAD IS NOT AVBL
WALTERBORO     CLOUDY    55  54  94 E7        30.24R
ALLENDALE      CLOUDY    57  55  94 CALM      30.24R

...SOUTHERN MIDLANDS AND PEE DEE...

CITY           SKY/WX    TMP DP  RH WIND       PRES   REMARKS
GEORGETOWN     NOT AVBL
KINGSTREE      NOT AVBL
ORANGEBURG     CLOUDY    55  50  83 E6        30.25R
BARNWELL       CLOUDY    57  54  88 E8        30.24R
AIKEN          CLOUDY    55  54  94 E6        30.25S
MANNING        CLOUDY    52  48  87 E5        30.27S
COLUMBIA       CLOUDY    56  51  84 E7        30.25R
SUMTER         CLOUDY    52  48  87 E9        30.25R
FLORENCE       CLOUDY    46  41  82 E12       30.31R
MYRTLE BEACH   CLOUDY    48  37  66 NE17      30.32R
N MYRTLE BEACH CLOUDY    46  36  68 NE13      30.29S

$$

GAZ063-065-086>088-099>101-113>116-118-119-134>141-150-031100-
...SOUTHEAST GEORGIA...

CITY           SKY/WX    TMP DP  RH WIND       PRES   REMARKS
SAVANNAH ARPT  FOG       57  55  94 CALM      30.22S VSB 3/4
HUNTER AAF     PTCLDY    55  55 100 E3        30.20R FOG
FORT STEWART   CLOUDY    57  57 100 CALM      30.20R
STATESBORO     LGT RAIN  58  58 100 SE3       30.22R
SYLVANIA       DRIZZLE   56  56 100 SE3       30.22S
CLAXTON        PTSUNNY   57  57 100 CALM      30.22R FOG

...CSRA...CENTRAL AND FAR SOUTHEAST GEORGIA...

CITY           SKY/WX    TMP DP  RH WIND       PRES   REMARKS
THOMSON        CLOUDY    58  58 100 CALM      30.25F
AUGUSTA-BUSH   CLOUDY    59  55  87 E6        30.22R
AUGUSTA-DANIEL CLOUDY    60  54  80 E6        30.22R
SWAINSBORO     NOT AVBL
VIDALIA        CLOUDY    61  61 100 CALM      30.21R
EASTMAN        CLOUDY    60  60 100 CALM      30.22F
HAZLEHURST     CLOUDY    60  60 100 CALM      30.20R FOG
ALMA           CLOUDY    55  54  96 CALM      30.21R FOG
WAYCROSS       CLOUDY    60  60 100 CALM      30.21R FOG
JESUP          CLOUDY    61  59  94 CALM      30.21R
BAXLEY         CLOUDY    59  59 100 CALM      30.21R FOG
BRUNSWICK      CLOUDY    59  57  94 CALM      30.22R
SAINT SIMONS   CLOUDY    60  57  89 CALM      30.21R

$$

SCZ027-028-034-036>038-045-046-048>050-GAZ119-141-031100-
...LAKE AND SUPPLEMENTAL COASTAL OBSERVATIONS...

STATION/POSITION TIME  TEMP    WIND        PRES    WAVE   SWELL
                       AIR SEA DIR/SP/G            HT/PER HT/PER/DIR
                 (UTC) (F)     (DEG/KT/KT) (MB)    (FT/S) (FT/S/D)
UPR LAKE MARION  NOT AVBL
WINYAH BAY       0945   47      50/ 13     1024.0S
LAKE MURRAY      1000   53      50/  2/  3 1023.7S
ACE BASIN NERRS  NOT AVBL
FORT PULASKI     1000      49   80/  4/  4 1023.7F
SAPELO ISLAND    1000   58     120/  1     1023.0S

$$

ANZ835-935-AMZ111-154-330-350-352-354-370-450-454-472-031100-
...C-MAN AND BUOY OBSERVATIONS...

STATION/POSITION TIME  TEMP    WIND        PRES    WAVE   SWELL
                       AIR SEA DIR/SP/G            HT/PER HT/PER/DIR
                 (UTC) (F)     (DEG/KT/KT) (MB)    (FT/S) (FT/S/D)
BUOY 41004       0950   66 68   80/ 12/ 14 1022.9R   4/ 8   3/ 8
BUOY 41008       0950   56 52  100/  2/  4 1023.2    2/ 9   2/100/ 9
FOLLY BEACH CMAN 1000   50      50/ 19/ 21 1024.3R
CAPERS NEARSHORE NOT AVBL
FRIPP NEARSHORE  0900   50      50/  8/ 10 1022.7R


STATION/POSITION TIME  TEMP    WIND        PRES    WAVE   SWELL
                       AIR SEA DIR/SP/G            HT/PER HT/PER/DIR
                 (UTC) (F)     (DEG/KT/KT) (MB)    (FT/S) (FT/S/D)
5E ST. MARYS GA  0951      53                N/A     3/ 8
FRYING PAN BUOY  0950   58 61   70/ 19/ 23 1024.6S   6/ 7   2/ 90/16
BUOY 41025       NOT AVBL
CAPE LOOKOUT NC  1000   41      20/ 15/ 18 1027.2R
BUOY 41002       0950   65 73   40/ 19/ 23 1024.5R   6/ 5   2/100/ 9
BUOY 41010       0920   72 75   30/  8/ 10 1022.3S
ST AUGUSTINE FL  1000   61     170/  3/  3 1023.3R


$$


USA.gov is the U.S. government's official web portal to all federal, state and local government web resources and services.